Regional Weather Roundup
Issued by NWS Sioux Falls, SD

Home | Current Version | Previous Version | Graphics & Text | Print | Product List | Glossary Off
Versions: 1 2 3 4 5 6 7 8 9 10 11 12 13 14 15 16 17 18 19 20 21 22 23 24 25 26 27 28 29 30 31 32 33 34 35 36 37 38 39 40 41 42 43 44 45 46 47 48 49 50

000
ASUS43 KFSD 220010
RWRFSD

WEATHER ROUNDUP FOR SE SOUTH DAKOTA/SW MINNESOTA/NW IOWA
NATIONAL WEATHER SERVICE SIOUX FALLS SD
600 PM CST TUE FEB 21 2017

NOTE: "FAIR" INDICATES FEW OR NO CLOUDS BELOW 12,000 FEET WITH NO
SIGNIFICANT WEATHER AND OR OBSTRUCTIONS TO VISIBILITY.


SDZ038>040-050-052>070-220100-
SOUTHEAST SOUTH DAKOTA

CITY           SKY/WX    TMP DP  RH WIND       PRES   REMARKS
BROOKINGS      CLEAR     59  41  51 SW3         N/A
CHAMBERLAIN    CLEAR     64  40  41 E7        29.66S
6HR MIN TEMP:  64; 6HR MAX TEMP:  73; 6HR PCP:  0.03;

HURON          CLEAR     63  35  35 S6        29.65F
6HR MIN TEMP:  59; 6HR MAX TEMP:  69;

MADISON        FAIR      59  37  44 SW3       29.70S
MITCHELL       CLEAR     63  38  39 S5        29.68F
6HR MIN TEMP:  62; 6HR MAX TEMP:  71;

SIOUX FALLS    PTCLDY    58  40  51 CALM      29.70F
6HR MIN TEMP:  57; 6HR MAX TEMP:  68;

WINNER         FAIR      69  35  28 W7        29.67S
YANKTON        CLEAR     68  37  32 W7        29.69S
$$

MNZ071-072-080-081-089-090-097-098-220100-
SOUTHWEST MINNESOTA

CITY           SKY/WX    TMP DP  RH WIND       PRES   REMARKS
FAIRMONT       CLEAR     58  46  64 S17       29.73F
JACKSON        CLEAR     55  41  58 SW9       29.74R
LUVERNE        CLEAR     59  43  55 CALM      29.72S
MARSHALL       CLEAR     58  44  60 W6        29.69F
6HR MIN TEMP:  55; 6HR MAX TEMP:  61;

MONTEVIDEO     CLEAR     57  45  62 CALM      29.70S
PIPESTONE      CLEAR     55  43  62 SW3       29.71S
REDWOOD FALLS  CLEAR     57  43  59 W8        29.69S
TRACY          CLEAR     55  46  72 SW8       29.71S
WINDOM         CLEAR     57  46  67 S6        29.72S
WORTHINGTON    CLEAR     58  45  62 S9        29.72F
$$

IAZ001>003-012>014-020>022-031-032-NEZ013-014-SDZ071-220100-
NORTHWEST IOWA

CITY           SKY/WX    TMP DP  RH WIND       PRES   REMARKS
CHEROKEE       CLEAR     61  38  42 S10       29.74S
DENISON        CLEAR     61  41  48 S14G25    29.77S
ESTHERVILLE    CLEAR     54  45  71 S9        29.73F
LE MARS        CLEAR     63  39  42 S13       29.72F
ORANGE CITY    CLEAR     57  45  62 SW8       29.72S
SHELDON        CLEAR     59  45  58 S8        29.70S
SIOUX CITY     CLEAR     66  38  35 S15       29.73F
6HR MIN TEMP:  64; 6HR MAX TEMP:  73;

SPENCER        CLEAR     56  44  64 S12       29.73F
6HR MIN TEMP:  56; 6HR MAX TEMP:  66;

STORM LAKE     CLEAR     57  45  62 S14       29.76S
$$

ABBREVIATIONS USED IN REMARKS
   TC - TEMPERATURE IN CELSIUS
  WCI - WIND CHILL INDEX
   HX - HEAT INDEX
  VSB - VISIBILITY





USA.gov is the U.S. government's official web portal to all federal, state and local government web resources and services.